Flag Weather past 2 weeks in Wertheim, Baden-Württemberg, Germany

Now
52 °F

Overcast.


Feels Like: 52 °F
Forecast: 45 / 60 °F
Wind: 2 mph from East

Location: Wuerzburg

Current Time: Oct 31, 2014 at 8:35:44 PM

Latest Report: Oct 31, 2014 at 8:00 PM


Visibility: 6 mi

Pressure: 30.29 "Hg

Humidity: 92%

Dew point: 50 °F

Location of WertheimLocation

Historic Weather in Wertheim — Graph

°F

Wertheim temperature yesterday

Maximum temperature yesterday: 53 °F (at 4:00 PM)
Minimum temperature yesterday: 43 °F (at 1:00 AM)
Average temperature yesterday: 48 °F

Past Weeks' High & Low Weather Summary

 TemperatureHumidityPressure
High72 °F (Oct 19, 3:00 PM)100% (Oct 17, 6:00 AM)30.40 "Hg (Oct 17, 6:00 AM)
Low37 °F (Oct 24, 9:00 AM)59% (Oct 19, 4:00 PM)29.59 "Hg (Oct 21, 7:00 PM)
Average50 °F89%30.15 "Hg
* Reported Oct 16 8:00 PM — Oct 31 7:00 PM, Wertheim, Weather by CustomWeather, © 2014

Note: Actual official high and low records may vary slightly from our data, if they occured in-between our weather recording intervals... More about our weather records

Advertising

Wertheim weather history for previous 24 hours

 ConditionsComfort  
Time TempWeatherWind HumidityBarometerVisibility
7:00 PM
Oct 31
53 °FOvercast.2 mph91%30.29 "Hg7 mi
6:00 PM53 °FOvercast.3 mph92%30.29 "Hg6 mi
5:00 PM55 °FOvercast.2 mph87%30.30 "Hg9 mi
4:00 PM56 °FOvercast.3 mph85%30.30 "Hg9 mi
3:00 PM56 °FOvercast.2 mph84%30.30 "Hg6 mi
2:00 PM57 °FOvercast.1 mph81%30.31 "Hg6 mi
1:00 PM55 °FFog.1 mph86%30.32 "Hg4 mi
12:00 PM53 °FFog.3 mph90%30.34 "Hg3 mi
11:00 AM52 °FFog.3 mph94%30.35 "Hg3 mi
10:00 AM51 °FFog.1 mph97%30.35 "Hg3 mi
9:00 AM49 °FFog.3 mph100%30.34 "Hg2 mi
8:00 AM48 °FFog.2 mph100%30.33 "Hg0 mi
7:00 AM48 °FFog.1 mph100%30.32 "Hg1 mi
6:00 AM48 °FFog.2 mph100%30.32 "Hg1 mi
5:00 AM49 °FFog.1 mph99%30.32 "Hg2 mi
4:00 AM49 °FFog.No wind99%30.31 "Hg2 mi
3:00 AM49 °FFog.1 mph97%30.32 "Hg2 mi
2:00 AM51 °FFog.1 mph96%30.33 "Hg3 mi
1:00 AM50 °FFog.2 mph94%30.33 "Hg4 mi
12:00 AM51 °FFog.No wind94%30.33 "Hg4 mi
11:00 PM
Oct 30
51 °FFog.1 mph94%30.32 "Hg4 mi
10:00 PM51 °FFog.1 mph93%30.32 "Hg4 mi
9:00 PM51 °FFog.1 mph93%30.32 "Hg4 mi
8:00 PM52 °FFog.1 mph93%30.31 "Hg2 mi
Weather by CustomWeather, © 2014

See weather overviewHow to use our weather pages